Regional Weather Roundup
Issued by NWS

Home | Current Version | Previous Version | Graphics & Text | Print | Product List | Glossary On
Versions: 1 2 3 4 5 6 7 8 9 10 11 12 13 14 15 16 17 18 19 20 21 22 23 24 25 26 27 28 29 30 31 32 33 34 35 36 37 38 39 40 41 42 43 44 45 46 47 48 49 50
000
ASUS43 KOAX 291402
RWRNE

WEATHER ROUNDUP FOR NEBRASKA
NATIONAL WEATHER SERVICE OMAHA NE
900 AM CDT FRI MAY 29 2015

NOTES: SATELLITE DATA IS BEING USED TO AUGMENT CLOUD COVER ABOVE
       12000 FEET.
       "FAIR" INDICATES FEW OR NO CLOUDS BELOW 12,000 FEET WITH NO
       SIGNIFICANT WEATHER AND/OR OBSTRUCTIONS TO VISIBILITY.

  * THESE STATIONS DO NOT REPORT WEATHER SUCH AS RAIN...SNOW OR FOG.

NEZ001>004-019>022-054>056-291500-
NEBRASKA PANHANDLE

CITY           SKY/WX    TMP DP  RH WIND       PRES   REMARKS
SCOTTSBLUFF    CLOUDY    55  51  86 W8        30.15R
ALLIANCE       PTSUNNY   56  52  86 N17       30.11R
CHADRON        LGT RAIN  56  53  90 N14       30.13R
KIMBALL          N/A    N/A N/A N/A MISG        N/A
SIDNEY         PTSUNNY   56  50  80 NW17      30.14R
$$

NEZ057>060-069>072-079>082-291500-
SOUTHWEST NEBRASKA

CITY           SKY/WX    TMP DP  RH WIND       PRES   REMARKS
NORTH PLATTE   MOSUNNY   63  55  75 N13       30.04S
IMPERIAL       MOSUNNY   60  53  77 NW10      30.07S
LEXINGTON      SUNNY     63  58  83 NW12      30.00S
MCCOOK         SUNNY     63  55  75 NW14      30.03R
$$

NEZ005>010-023>029-035>040-094-291500-
NORTH CENTRAL NEBRASKA

CITY           SKY/WX    TMP DP  RH WIND       PRES   REMARKS
VALENTINE      PTSUNNY   64  56  75 NW15G23   30.01R
AINSWORTH      CLOUDY    62  56  80 NW17      30.01R
BROKEN BOW     MOSUNNY   63  56  78 NW13      29.98S
ORD            MOSUNNY   63  57  81 NW10G18   29.95R
$$

NEZ041-046>049-061>064-073>077-083>087-291500-
SOUTH CENTRAL NEBRASKA

CITY           SKY/WX    TMP DP  RH WIND       PRES   REMARKS
GRAND ISLAND   PTSUNNY   64  58  80 NW9       29.96S
AURORA         CLOUDY    63  60  92 W7        29.96S
HASTINGS       CLOUDY    63  58  83 NW9       29.96S
HEBRON         CLOUDY    65  60  85 W3        29.95F
HOLDREGE       MOSUNNY   64  55  70 NW13G18   29.98S
KEARNEY *      MOSUNNY   63  55  77 NW14      29.97S
$$

NEZ011>018-030>034-042>045-291500-
NORTHEAST NEBRASKA

CITY           SKY/WX    TMP DP  RH WIND       PRES   REMARKS
NORFOLK        CLOUDY    65  60  84 W8        29.92R
ALBION         CLOUDY    64  57  80 NW10G17   29.94S
BLAIR          CLOUDY    67  63  87 SW8       29.93S
COLUMBUS *     CLOUDY    64  57  77 W6        29.94S
FREMONT        CLOUDY    67  62  83 S9        29.93S
TEKAMAH        CLOUDY    68  64  87 S15       29.91S
$$

NEZ050>053-065>068-078-088>093-291500-
SOUTHEAST NEBRASKA

CITY           SKY/WX    TMP DP  RH WIND       PRES   REMARKS
LINCOLN        PTSUNNY   67  60  78 SW7       29.94S
OMAHA EPPLEY   CLOUDY    68  64  87 S5        29.93R
BEATRICE       PTSUNNY   66  62  87 SW8       29.94F
FALLS CITY     CLOUDY    68  65  90 S8        29.94R
NEBRASKA CITY  CLOUDY    66  66  99 SW7       29.94R FOG
PLATTSMOUTH    CLOUDY    67  65  93 CALM      29.93S FOG
$$

NEZ044-045-051>053-067-291500-
OMAHA AREA

CITY           SKY/WX    TMP DP  RH WIND       PRES   REMARKS
OMAHA EPPLEY   CLOUDY    68  64  87 S5        29.93R
BLAIR          CLOUDY    67  63  87 SW8       29.93S
FREMONT        CLOUDY    67  62  83 S9        29.93S
OFFUTT AFB     CLOUDY    67  65  93 VRB3      29.92R
PLATTSMOUTH    CLOUDY    67  65  93 CALM      29.93S FOG
WAHOO          FAIR      67  61  80 SW6       29.93S
$$


USA.gov is the U.S. government's official web portal to all federal, state and local government web resources and services.